Location: Alma
(38.7220°N, 88.9090°W)
Time: 00:38:42
(UTC-06:00)

Transit 4A - Visible Passes

Search period start: 20 November 2019 00:00
Search period end: 30 November 2019 00:00
Orbit: 869 x 976 km, 66.8° (Epoch: 18 November)

Date Brightness Start Highest point End Pass type
(mag) Time Alt. Az. Time Alt. Az. Time Alt. Az.
20 Nov 10.2 04:41:06 10° N 04:43:57 13° NE 04:46:45 10° ENE visible
21 Nov 10.0 04:49:37 10° N 04:53:42 19° NE 04:57:44 10° E visible
22 Nov 9.6 04:58:26 10° N 05:03:21 26° NE 05:08:11 10° ESE visible
23 Nov 9.0 05:07:27 10° NNW 05:12:55 38° NE 05:18:16 10° ESE visible
24 Nov 10.4 03:33:15 10° NNE 03:34:39 11° NE 03:36:02 10° NE visible
24 Nov 8.4 05:16:35 10° NNW 05:22:23 56° ENE 05:28:03 10° SE visible
25 Nov 10.1 03:42:18 13° NNE 03:44:29 15° NE 03:47:47 10° ENE visible
25 Nov 7.8 05:25:51 10° NNW 05:31:45 84° ENE 05:37:33 10° SSE visible
25 Nov 10.1 18:46:18 10° SSE 18:46:30 11° SSE 18:46:30 11° SSE visible
26 Nov 9.8 03:52:01 18° NNE 03:54:11 21° NE 03:58:32 10° E visible
26 Nov 7.8 05:35:35 12° NW 05:41:03 65° WSW 05:46:45 10° SSE visible
26 Nov 9.5 18:54:36 10° S 18:56:42 20° SSE 18:56:42 20° SSE visible
27 Nov 9.3 04:01:50 25° NNE 04:03:49 30° NE 04:08:51 10° ESE visible
27 Nov 8.2 05:45:23 13° NW 05:50:15 42° WSW 05:55:39 10° S visible
27 Nov 8.9 19:03:20 10° S 19:06:53 33° S 19:06:53 33° S visible
28 Nov 8.7 04:11:43 35° NNE 04:13:20 43° NE 04:18:49 10° SE visible
28 Nov 8.7 05:55:18 13° NW 05:59:23 27° WSW 06:04:10 10° SSW visible
28 Nov 9.7 17:32:19 10° ESE 17:33:16 10° E 17:33:27 10° E visible
28 Nov 8.4 19:12:24 10° SSW 19:17:02 51° S 19:17:02 51° S visible
29 Nov 8.0 04:21:42 54° N 04:22:46 65° ENE 04:28:30 10° SE visible
29 Nov 9.2 06:05:16 11° WNW 06:08:27 17° WSW 06:12:06 10° SW visible
29 Nov 9.3 17:38:23 10° SE 17:42:17 17° ESE 17:43:32 16° E visible
29 Nov 8.2 19:21:45 10° SW 19:27:06 62° WSW 19:27:06 62° WSW visible
